STARLINK-32754, 62527

Orbit data source: Space-Track

STARLINK-32754, 62527 is a payload satellite owned by SpaceX/Seattle (US) in LEO that was launched on Wed, 08 Jan 2025 UTC via an FALCON 9 launch vehicle from the Air Force Eastern Test Range (AFETR). Payload-class satellites include a variety of spacecraft equipped with specific instruments for various scientific and technological missions. These include communications satellites like Starlink; space stations such as the ISS; scientific satellites like the Hubble; Earth observation satellites from companies like Planet Labs, Umbra, and HawkEye 360; GPS; miniature CubeSats for education and research; and military/defense satellites.

Loading next visibility...
Identifier
62527, 2025-004S
Orbit
LEO
Country
Flag of USUS
Related business
Manufacturer
SpaceX/Seattle
Mission
Operational Commercial Communications
Bus & Motor
STARLINK V2M, Unknown motor
Mass
730 kg wet, ~700 kg dry
Launch date (UTC)
2025-01-08 (1 year ago)
Launch vehicle
FALCON 9
Launch site
Air Force Eastern Test Range (AFETR)
Object type
Payload
Rocket body
Debris
Shape & HBR
Box + 2 Pan, 17.7 m
Radar Cross Section
33.884 m², Large (>1 m²)

Expand to show TLE details & history
Last TLE update: 1 day ago

TLE from 1 day ago
0 STARLINK-32754
1 62527U 25004S   26170.59659514  .00012553  00000-0  46466-3 0  9998
2 62527  43.0013   4.3813 0001647 261.7316  98.3349 15.27598685 81098
Epoch: 2026-06-19T14:19Z
TLE epoch observation values (Epoch: 2026-06-19T14:19:05.820Z)
Latitude
Longitude
-118.21624°
Altitude
482.933 km
Speed
7.626 km/s
True Right ascension
00h 17m 31s
True Declination
0° 00' 00"
Sunlit
Object was in daylight at epoch
Visualization orbit readout
Latitude
Unknown
Longitude
Unknown
Altitude
Unknown
Speed
Unknown
Apparent Right ascension
Unknown
Apparent Declination
Unknown
Sunlit
N/A
Visualization observer readout
Local Sidereal Time
07:24:01
Azimuth
Unknown
Elevation
Unknown
Doppler factor
Unknown
Orbital elements
Apogee altitude
486.068 km
Perigee altitude
483.808 km
Semi-major axis
6,863.075 km
Eccentricity
0.00016
Inclination
43.0013°
RAAN
4.3813°
Arg. of periapsis
261.7316°
True anomaly
98.35357°
Mean anomaly
98.3349°
Eccentric anomaly
98.34424°
Mean motion
3.81738 °/min
Orbital period
94.31 mins
BSTAR
0.00046466
Loading maneuver chart data...
Computing Atmospheric mass density...
Loading historical data...
Loading historical data...
Loading historical data...
Loading historical data...
Loading historical data...
Loading historical data...
Loading historical data...

Documentation

Showing up to 5 results
|